When you browse on this site, cookies collect data to enhance your experience and personalize the content and advertising you see.
Visit our Privacy Policy to learn more. By continuing to use the site, you agree to this use of cookies and data.
  • In Netherlands
  • List of Countries
  • For 7 days
  • Water Temperature
  • Satellite Maps
  • Weather Map
  • Weather Widgets
  • user-avatar
    Login

    Hourly Weather Granada

    Today, 18 November, Sunday

    Time Temperature Precipitation Wind Pressure Humidity
    00:00 +12°C° 0 mm 3 mps 696 mmHg 86%
    01:00 +12°C° 0 mm 3 mps 696 mmHg 85%
    02:00 +11°C° 0 mm 3 mps 695 mmHg 85%
    03:00 +12°C° 0 mm 2 mps 695 mmHg 85%
    04:00 +12°C° 0 mm 2 mps 694 mmHg 85%
    05:00 +10°C° 0 mm 2 mps 694 mmHg 85%
    06:00 +10°C° 0 mm 2 mps 694 mmHg 86%
    07:00 +11°C° 0 mm 3 mps 694 mmHg 81%
    08:00 +12°C° 0 mm 3 mps 694 mmHg 76%
    09:00 +12°C° 0 mm 3 mps 694 mmHg 72%
    10:00 +13°C° 0.5 mm 3 mps 694 mmHg 71%
    11:00 +13°C° 0.5 mm 3 mps 694 mmHg 70%
    12:00 +13°C° 0.5 mm 3 mps 694 mmHg 69%
    13:00 +13°C° 1.1 mm 3 mps 693 mmHg 73%
    14:00 +13°C° 1.1 mm 2 mps 693 mmHg 77%
    15:00 +13°C° 1.1 mm 2 mps 692 mmHg 81%
    16:00 +12°C° 1.2 mm 2 mps 692 mmHg 83%
    17:00 +12°C° 1.2 mm 2 mps 692 mmHg 86%
    18:00 +12°C° 1.2 mm 2 mps 692 mmHg 88%
    19:00 +12°C° 0.7 mm 2 mps 692 mmHg 88%
    20:00 +10°C° 0.7 mm 2 mps 692 mmHg 89%
    21:00 +10°C° 0.7 mm 2 mps 692 mmHg 89%
    22:00 +11°C° 0.1 mm 1 mps 692 mmHg 90%
    23:00 +11°C° 0.1 mm 1 mps 691 mmHg 90%

    Tomorrow, 19 November, Monday

    Time Temperature Precipitation Wind Pressure Humidity
    00:00 +10°C° 0.1 mm 1 mps 691 mmHg 91%
    01:00 +10°C° 0.1 mm 1 mps 691 mmHg 90%
    02:00 +10°C° 0.1 mm 1 mps 691 mmHg 90%
    03:00 +10°C° 0.1 mm 1 mps 691 mmHg 90%
    04:00 +10°C° 0.2 mm 1 mps 691 mmHg 90%
    05:00 +10°C° 0.2 mm 1 mps 691 mmHg 91%
    06:00 +10°C° 0.2 mm 1 mps 691 mmHg 91%
    07:00 +10°C° 0.4 mm 1 mps 691 mmHg 90%
    08:00 +9°C° 0.4 mm 2 mps 691 mmHg 88%
    09:00 +9°C° 0.4 mm 2 mps 691 mmHg 86%
    10:00 +10°C° 0.2 mm 2 mps 691 mmHg 84%
    11:00 +10°C° 0.2 mm 3 mps 691 mmHg 81%
    12:00 +11°C° 0.2 mm 3 mps 691 mmHg 78%
    13:00 +11°C° 0.6 mm 4 mps 691 mmHg 80%
    14:00 +10°C° 0.6 mm 4 mps 691 mmHg 81%
    15:00 +10°C° 0.6 mm 4 mps 691 mmHg 82%
    16:00 +10°C° 0.6 mm 4 mps 691 mmHg 84%
    17:00 +10°C° 0.6 mm 4 mps 691 mmHg 87%
    18:00 +9°C° 0.6 mm 3 mps 692 mmHg 89%
    19:00 +9°C° 0.5 mm 3 mps 692 mmHg 89%
    20:00 +9°C° 0.5 mm 3 mps 693 mmHg 89%
    21:00 +9°C° 0.5 mm 3 mps 693 mmHg 89%
    22:00 +9°C° 0.4 mm 3 mps 693 mmHg 89%
    23:00 +9°C° 0.4 mm 3 mps 693 mmHg 90%

    Day after tomorrow, 20 November, Tuesday

    Time Temperature Precipitation Wind Pressure Humidity
    00:00 +9°C° 0.4 mm 3 mps 694 mmHg 90%
    01:00 +9°C° 0.1 mm 3 mps 694 mmHg 90%
    02:00 +9°C° 0.1 mm 3 mps 693 mmHg 91%
    03:00 +9°C° 0.1 mm 3 mps 693 mmHg 91%
    04:00 +9°C° 0.1 mm 3 mps 693 mmHg 91%
    05:00 +9°C° 0.1 mm 3 mps 693 mmHg 91%
    06:00 +8°C° 0.1 mm 3 mps 693 mmHg 90%
    07:00 +9°C° 0 mm 3 mps 694 mmHg 86%
    08:00 +8°C° 0 mm 4 mps 694 mmHg 82%
    09:00 +10°C° 0 mm 4 mps 695 mmHg 78%
    10:00 +11°C° 0.2 mm 4 mps 695 mmHg 76%
    11:00 +11°C° 0.2 mm 4 mps 695 mmHg 73%
    12:00 +12°C° 0.2 mm 4 mps 695 mmHg 71%
    13:00 +12°C° 0.5 mm 4 mps 694 mmHg 74%
    14:00 +12°C° 0.5 mm 5 mps 694 mmHg 76%
    15:00 +12°C° 0.5 mm 5 mps 694 mmHg 78%
    16:00 +10°C° 0.1 mm 5 mps 694 mmHg 81%
    17:00 +9°C° 0.1 mm 5 mps 695 mmHg 83%
    18:00 +8°C° 0.1 mm 4 mps 695 mmHg 85%
    19:00 +8°C° 0.1 mm 4 mps 695 mmHg 86%
    20:00 +8°C° 0.1 mm 4 mps 696 mmHg 87%
    21:00 +8°C° 0.1 mm 4 mps 697 mmHg 88%
    22:00 +8°C° 0.1 mm 4 mps 697 mmHg 89%
    23:00 +8°C° 0.1 mm 4 mps 697 mmHg 89%

    21 November, Wednesday

    Time Temperature Precipitation Wind Pressure Humidity
    00:00 +8°C° 0.1 mm 4 mps 697 mmHg 90%
    01:00 +8°C° 0.1 mm 4 mps 697 mmHg 90%
    02:00 +7°C° 0.1 mm 4 mps 697 mmHg 90%
    03:00 +7°C° 0.1 mm 4 mps 697 mmHg 89%
    04:00 +7°C° 0.1 mm 4 mps 697 mmHg 90%
    05:00 +7°C° 0.1 mm 4 mps 697 mmHg 90%
    06:00 +7°C° 0.1 mm 4 mps 697 mmHg 90%
    07:00 +7°C° 0 mm 4 mps 698 mmHg 86%
    08:00 +7°C° 0 mm 4 mps 698 mmHg 81%
    09:00 +8°C° 0 mm 4 mps 699 mmHg 76%
    10:00 +10°C° 0 mm 4 mps 699 mmHg 71%
    11:00 +10°C° 0 mm 4 mps 699 mmHg 66%
    12:00 +11°C° 0 mm 4 mps 699 mmHg 61%
    13:00 +11°C° 0 mm 4 mps 699 mmHg 60%
    14:00 +11°C° 0 mm 3 mps 699 mmHg 59%
    15:00 +11°C° 0 mm 3 mps 699 mmHg 58%
    16:00 +11°C° 0 mm 3 mps 699 mmHg 63%
    17:00 +10°C° 0 mm 2 mps 699 mmHg 68%
    18:00 +9°C° 0 mm 2 mps 699 mmHg 73%
    19:00 +9°C° 0 mm 2 mps 699 mmHg 75%
    20:00 +9°C° 0 mm 2 mps 700 mmHg 78%
    21:00 +9°C° 0 mm 2 mps 700 mmHg 81%
    22:00 +8°C° 0.1 mm 2 mps 700 mmHg 83%
    23:00 +8°C° 0.1 mm 2 mps 700 mmHg 86%

    22 November, Thursday

    Time Temperature Precipitation Wind Pressure Humidity
    00:00 +8°C° 0.1 mm 2 mps 700 mmHg 88%
    01:00 +9°C° 0.1 mm 1 mps 700 mmHg 89%
    02:00 +8°C° 0.1 mm 1 mps 699 mmHg 90%
    03:00 +8°C° 0.1 mm 1 mps 699 mmHg 91%
    04:00 +8°C° 0.1 mm 1 mps 699 mmHg 91%
    05:00 +8°C° 0.1 mm 1 mps 699 mmHg 91%
    06:00 +8°C° 0.1 mm 1 mps 699 mmHg 91%
    07:00 +9°C° 0 mm 1 mps 700 mmHg 87%
    08:00 +8°C° 0 mm 2 mps 700 mmHg 82%
    09:00 +9°C° 0 mm 2 mps 700 mmHg 77%
    10:00 +10°C° 0.2 mm 2 mps 701 mmHg 73%
    11:00 +12°C° 0.2 mm 2 mps 701 mmHg 69%
    12:00 +12°C° 0.2 mm 3 mps 701 mmHg 65%
    13:00 +11°C° 0.3 mm 3 mps 701 mmHg 68%
    14:00 +12°C° 0.3 mm 2 mps 700 mmHg 71%
    15:00 +12°C° 0.3 mm 2 mps 700 mmHg 74%
    16:00 +10°C° 0.2 mm 2 mps 700 mmHg 77%
    17:00 +11°C° 0.2 mm 1 mps 701 mmHg 80%
    18:00 +10°C° 0.2 mm 1 mps 701 mmHg 83%
    19:00 +10°C° 0 mm 1 mps 701 mmHg 85%
    20:00 +10°C° 0 mm 1 mps 701 mmHg 86%
    21:00 +9°C° 0 mm 1 mps 702 mmHg 88%
    22:00 +9°C° 0 mm 1 mps 702 mmHg 88%
    23:00 +9°C° 0 mm 1 mps 702 mmHg 89%

    23 November, Friday

    Time Temperature Precipitation Wind Pressure Humidity
    00:00 +9°C° 0 mm 1 mps 702 mmHg 89%
    01:00 +9°C° 0.1 mm 1 mps 702 mmHg 88%
    02:00 +9°C° 0.1 mm 1 mps 702 mmHg 87%
    03:00 +9°C° 0.1 mm 1 mps 701 mmHg 87%
    04:00 +8°C° 0 mm 1 mps 701 mmHg 86%
    05:00 +8°C° 0 mm 1 mps 701 mmHg 85%
    06:00 +8°C° 0 mm 1 mps 701 mmHg 85%
    07:00 +9°C° 0 mm 1 mps 702 mmHg 79%
    08:00 +10°C° 0 mm 1 mps 702 mmHg 74%
    09:00 +11°C° 0 mm 1 mps 703 mmHg 69%
    10:00 +12°C° 0 mm 1 mps 703 mmHg 65%
    11:00 +13°C° 0 mm 1 mps 703 mmHg 60%
    12:00 +14°C° 0 mm 2 mps 703 mmHg 56%
    13:00 +14°C° 0 mm 2 mps 702 mmHg 56%
    14:00 +14°C° 0 mm 2 mps 702 mmHg 56%
    15:00 +14°C° 0 mm 2 mps 702 mmHg 56%
    16:00 +13°C° 0 mm 1 mps 702 mmHg 62%
    17:00 +12°C° 0 mm 1 mps 702 mmHg 67%
    18:00 +11°C° 0 mm 1 mps 702 mmHg 72%
    19:00 +11°C° 0.1 mm 1 mps 702 mmHg 73%
    20:00 +11°C° 0.1 mm 1 mps 702 mmHg 74%
    21:00 +11°C° 0.1 mm 1 mps 702 mmHg 75%
    22:00 +11°C° 0.3 mm 1 mps 702 mmHg 77%
    23:00 +11°C° 0.3 mm 1 mps 702 mmHg 78%
    Show more